COSMOS 1275 DEB, 15542

Orbit data source: Space-Track

COSMOS 1275 DEB, 15542 is space debris in LEO originally from a launch on Thu, 04 Jun 1981 UTC launched from the Plesetsk Missile And Space Complex (PKMTR). Debris objects in space refer to the collection of defunct objects orbiting the Earth. Examples of debris include non-operational satellites, rocket bodies, and fragments generated from explosions, collisions, or faulty payload assembly.

Loading next visibility...
Identifier
15542, 1981-053KA
Orbit
LEO
Country
Flag of CISCIS
Related business
Manufacturer
Unknown
Mission
Spacecraft
Bus & Motor
Unknown
Mass
Unknown
Launch date (UTC)
1981-06-04 (44 years ago)
Launch vehicle
Unknown
Launch site
Plesetsk Missile And Space Complex (PKMTR)
Object type
Payload
Rocket body
Debris
Shape & HBR
Unknown shape, 0.1 m
Radar Cross Section
Small (<0.1 m²)

Expand to show TLE details & history
Last TLE update: 14 hours ago

TLE from 14 hours ago
0 COSMOS 1275 DEB
1 15542U 81053KA  25286.88667057  .00001476  00000-0  13446-2 0  9992
2 15542  83.0013 247.6554 0071139 334.6909  53.8542 13.81584060192737
Epoch: 2025-10-13T21:16Z
TLE epoch observation values (Epoch: 2025-10-13T21:16:48.337Z)
Latitude
29.0147°
Longitude
-90.34524°
Altitude
931.329 km
Speed
7.404 km/s
True Right ascension
16h 46m 09s
True Declination
28° 52' 21"
Sunlit
Object was in daylight at epoch
Visualization orbit readout
Latitude
Unknown
Longitude
Unknown
Altitude
Unknown
Speed
Unknown
Apparent Right ascension
Unknown
Apparent Declination
Unknown
Sunlit
N/A
Visualization observer readout
Local Sidereal Time
05:42:59
Azimuth
Unknown
Elevation
Unknown
Doppler factor
Unknown
Orbital elements
Apogee altitude
1,007.581 km
Perigee altitude
903.241 km
Semi-major axis
7,333.548 km
Eccentricity
0.00711
Inclination
83.0013°
RAAN
247.6554°
Arg. of periapsis
334.6909°
True anomaly
54.51594°
Mean anomaly
53.8542°
Eccentric anomaly
54.18472°
Mean motion
3.45599 °/min
Orbital period
104.17 mins
BSTAR
0.0013446
Loading maneuver chart data...
Computing Atmospheric mass density...

Documentation

Showing up to 5 results
|